When you browse on this site, cookies collect data to enhance your experience and personalize the content and advertising you see.
Visit our Privacy Policy to learn more. By continuing to use the site, you agree to this use of cookies and data.

Previsão horária em Ischgl

Hoje, 13 Agosto, Quinta-feira

Tempo Temperatura Precipitação Vento Pressão Humidade
00:00 +11°C° 0.1 mm 1 m/s 579 mmHg 84%
01:00 +11°C° 0 mm 1 m/s 578 mmHg 82%
02:00 +10°C° 0.1 mm 1 m/s 578 mmHg 83%
03:00 +10°C° 0.1 mm 1 m/s 578 mmHg 83%
04:00 +10°C° 0.1 mm 1 m/s 578 mmHg 84%
05:00 +11°C° 0.2 mm 1 m/s 578 mmHg 82%
06:00 +12°C° 0.2 mm 1 m/s 579 mmHg 80%
07:00 +13°C° 0 mm 1 m/s 580 mmHg 74%
08:00 +14°C° 0.8 mm 1 m/s 580 mmHg 71%
09:00 +15°C° 0.8 mm 1 m/s 580 mmHg 68%
10:00 +15°C° 0.8 mm 1 m/s 580 mmHg 65%
11:00 +15°C° 1.4 mm 1 m/s 580 mmHg 67%
12:00 +15°C° 1.4 mm 1 m/s 580 mmHg 68%
13:00 +15°C° 0 mm 1 m/s 580 mmHg 72%
14:00 +15°C° 1.6 mm 1 m/s 580 mmHg 73%
15:00 +15°C° 1.6 mm 2 m/s 580 mmHg 74%
16:00 +14°C° 1.6 mm 2 m/s 579 mmHg 74%
17:00 +13°C° 0.9 mm 1 m/s 579 mmHg 79%
18:00 +13°C° 0.9 mm 1 m/s 579 mmHg 84%
19:00 +12°C° 0.9 mm 1 m/s 578 mmHg 88%
20:00 +10°C° 0.2 mm 0 m/s 578 mmHg 88%
21:00 +9°C° 0.2 mm 0 m/s 577 mmHg 89%
22:00 +8°C° 0.2 mm 0 m/s 576 mmHg 89%
23:00 +7°C° 0 mm 0 m/s 576 mmHg 88%

Amanhã, 14 Agosto, Sexta-feira

Tempo Temperatura Precipitação Vento Pressão Humidade
00:00 +7°C° 0 mm 0 m/s 576 mmHg 88%
01:00 +7°C° 0 mm 0 m/s 576 mmHg 87%
02:00 +7°C° 0 mm 0 m/s 576 mmHg 87%
03:00 +7°C° 0 mm 0 m/s 576 mmHg 86%
04:00 +7°C° 0 mm 0 m/s 575 mmHg 85%
05:00 +8°C° 0 mm 0 m/s 576 mmHg 84%
06:00 +10°C° 0 mm 1 m/s 577 mmHg 83%
07:00 +10°C° 0 mm 1 m/s 577 mmHg 82%
08:00 +11°C° 0.4 mm 1 m/s 577 mmHg 81%
09:00 +11°C° 0.4 mm 1 m/s 578 mmHg 79%
10:00 +12°C° 0.4 mm 1 m/s 578 mmHg 78%
11:00 +12°C° 1.2 mm 1 m/s 577 mmHg 81%
12:00 +11°C° 1.2 mm 1 m/s 577 mmHg 84%
13:00 +11°C° 1.2 mm 1 m/s 577 mmHg 86%
14:00 +11°C° 2 mm 1 m/s 576 mmHg 87%
15:00 +10°C° 2 mm 1 m/s 576 mmHg 88%
16:00 +10°C° 2 mm 1 m/s 576 mmHg 88%
17:00 +10°C° 0.5 mm 1 m/s 576 mmHg 89%
18:00 +10°C° 0.5 mm 1 m/s 576 mmHg 89%
19:00 +9°C° 0.5 mm 0 m/s 576 mmHg 90%
20:00 +8°C° 0 mm 0 m/s 576 mmHg 90%
21:00 +7°C° 0 mm 0 m/s 576 mmHg 91%
22:00 +5°C° 0 mm 0 m/s 575 mmHg 92%
23:00 +5°C° 0 mm 0 m/s 575 mmHg 92%

Depois de amanhã, 15 Agosto, Sábado

Tempo Temperatura Precipitação Vento Pressão Humidade
00:00 +5°C° 0 mm 0 m/s 575 mmHg 92%
01:00 +6°C° 0 mm 1 m/s 575 mmHg 92%
02:00 +5°C° 0 mm 0 m/s 575 mmHg 92%
03:00 +5°C° 0 mm 0 m/s 574 mmHg 91%
04:00 +4°C° 0 mm 0 m/s 574 mmHg 91%
05:00 +6°C° 0 mm 0 m/s 575 mmHg 88%
06:00 +7°C° 0 mm 0 m/s 576 mmHg 85%
07:00 +8°C° 0 mm 0 m/s 576 mmHg 81%
08:00 +11°C° 0 mm 1 m/s 577 mmHg 75%
09:00 +12°C° 0 mm 1 m/s 578 mmHg 68%
10:00 +14°C° 0 mm 1 m/s 578 mmHg 61%
11:00 +15°C° 0 mm 1 m/s 579 mmHg 57%
12:00 +16°C° 0 mm 1 m/s 579 mmHg 52%
13:00 +18°C° 0 mm 1 m/s 579 mmHg 48%
14:00 +18°C° 0 mm 1 m/s 579 mmHg 49%
15:00 +17°C° 0 mm 2 m/s 579 mmHg 50%
16:00 +17°C° 0 mm 2 m/s 579 mmHg 51%
17:00 +15°C° 0.1 mm 2 m/s 578 mmHg 62%
18:00 +13°C° 0.1 mm 1 m/s 577 mmHg 74%
19:00 +12°C° 0.1 mm 1 m/s 576 mmHg 85%
20:00 +10°C° 0 mm 1 m/s 576 mmHg 88%
21:00 +9°C° 0 mm 1 m/s 575 mmHg 92%
22:00 +6°C° 0 mm 0 m/s 575 mmHg 95%
23:00 +6°C° 0 mm 0 m/s 575 mmHg 95%

16 Agosto, Domingo

Tempo Temperatura Precipitação Vento Pressão Humidade
00:00 +6°C° 0 mm 0 m/s 574 mmHg 95%
01:00 +6°C° 0 mm 0 m/s 574 mmHg 95%
02:00 +5°C° 0 mm 0 m/s 574 mmHg 94%
03:00 +5°C° 0 mm 0 m/s 574 mmHg 94%
04:00 +5°C° 0 mm 0 m/s 574 mmHg 94%
05:00 +8°C° 0 mm 1 m/s 574 mmHg 90%
06:00 +9°C° 0 mm 1 m/s 575 mmHg 86%
07:00 +11°C° 0 mm 1 m/s 576 mmHg 83%
08:00 +13°C° 0 mm 1 m/s 577 mmHg 75%
09:00 +14°C° 0 mm 1 m/s 578 mmHg 67%
10:00 +16°C° 0 mm 1 m/s 579 mmHg 59%
11:00 +16°C° 0.5 mm 1 m/s 579 mmHg 58%
12:00 +18°C° 0.5 mm 1 m/s 579 mmHg 57%
13:00 +18°C° 0.5 mm 1 m/s 579 mmHg 57%
14:00 +16°C° 1.5 mm 1 m/s 578 mmHg 61%
15:00 +16°C° 1.5 mm 1 m/s 578 mmHg 65%
16:00 +15°C° 1.5 mm 1 m/s 577 mmHg 69%
17:00 +14°C° 1.2 mm 1 m/s 577 mmHg 75%
18:00 +13°C° 1.2 mm 1 m/s 576 mmHg 81%
19:00 +11°C° 1.2 mm 0 m/s 576 mmHg 87%
20:00 +10°C° 0.2 mm 0 m/s 576 mmHg 87%
21:00 +10°C° 0.2 mm 0 m/s 576 mmHg 87%
22:00 +9°C° 0.2 mm 0 m/s 576 mmHg 87%
23:00 +10°C° 0 mm 1 m/s 575 mmHg 87%

17 Agosto, Segunda-feira

Tempo Temperatura Precipitação Vento Pressão Humidade
00:00 +10°C° 0 mm 1 m/s 575 mmHg 87%
01:00 +9°C° 0 mm 1 m/s 575 mmHg 87%
02:00 +9°C° 0.2 mm 1 m/s 575 mmHg 87%
03:00 +9°C° 0.2 mm 1 m/s 575 mmHg 88%
04:00 +9°C° 0.2 mm 1 m/s 575 mmHg 88%
05:00 +9°C° 0.2 mm 1 m/s 575 mmHg 86%
06:00 +10°C° 0.2 mm 1 m/s 575 mmHg 84%
07:00 +11°C° 0.2 mm 1 m/s 576 mmHg 82%
08:00 +12°C° 0.6 mm 1 m/s 576 mmHg 79%
09:00 +13°C° 0.6 mm 1 m/s 577 mmHg 76%
10:00 +13°C° 0.6 mm 1 m/s 577 mmHg 72%
11:00 +14°C° 1 mm 1 m/s 577 mmHg 72%
12:00 +14°C° 1 mm 1 m/s 577 mmHg 72%
13:00 +15°C° 1 mm 2 m/s 577 mmHg 71%
14:00 +14°C° 1.8 mm 2 m/s 577 mmHg 75%
15:00 +13°C° 1.8 mm 2 m/s 576 mmHg 80%
16:00 +12°C° 1.8 mm 2 m/s 576 mmHg 84%
17:00 +10°C° 2.5 mm 2 m/s 576 mmHg 87%
18:00 +9°C° 2.5 mm 2 m/s 575 mmHg 91%
19:00 +8°C° 2.5 mm 2 m/s 575 mmHg 95%
20:00 +8°C° 3.5 mm 2 m/s 575 mmHg 95%
21:00 +7°C° 3.5 mm 2 m/s 574 mmHg 95%
22:00 +6°C° 3.5 mm 2 m/s 574 mmHg 95%
23:00 +6°C° 1.6 mm 2 m/s 574 mmHg 94%

18 Agosto, Terça-feira

Tempo Temperatura Precipitação Vento Pressão Humidade
00:00 +6°C° 1.6 mm 1 m/s 574 mmHg 93%
01:00 +6°C° 1.6 mm 1 m/s 574 mmHg 92%
02:00 +6°C° 0.3 mm 1 m/s 574 mmHg 92%
03:00 +6°C° 0.3 mm 1 m/s 574 mmHg 92%
04:00 +6°C° 0.3 mm 1 m/s 574 mmHg 92%
05:00 +6°C° 0.2 mm 1 m/s 574 mmHg 91%
06:00 +6°C° 0.2 mm 1 m/s 574 mmHg 90%
07:00 +6°C° 0.2 mm 1 m/s 574 mmHg 90%
08:00 +6°C° 0.4 mm 1 m/s 574 mmHg 89%
09:00 +7°C° 0.4 mm 1 m/s 574 mmHg 89%
10:00 +7°C° 0.4 mm 1 m/s 574 mmHg 89%
11:00 +8°C° 0.2 mm 1 m/s 575 mmHg 83%
12:00 +9°C° 0.2 mm 2 m/s 575 mmHg 78%
13:00 +10°C° 0.2 mm 2 m/s 576 mmHg 73%
14:00 +10°C° 0.2 mm 2 m/s 576 mmHg 70%
15:00 +12°C° 0.2 mm 2 m/s 576 mmHg 68%
16:00 +12°C° 0.2 mm 2 m/s 576 mmHg 66%
17:00 +10°C° 0.1 mm 2 m/s 575 mmHg 72%
18:00 +9°C° 0.1 mm 2 m/s 575 mmHg 78%
19:00 +8°C° 0.1 mm 1 m/s 574 mmHg 85%
20:00 +7°C° 0 mm 1 m/s 574 mmHg 88%
21:00 +6°C° 0 mm 1 m/s 574 mmHg 91%
22:00 +5°C° 0 mm 1 m/s 574 mmHg 95%
23:00 +4°C° 0 mm 1 m/s 573 mmHg 95%
Mostrar mais